Terminal Aerodrome Forecast
Issued by NWS Des Moines, IA

Home | Current Version | Previous Version | Text Only | Print | Product List | Glossary On
Versions: 1 2 3 4 5 6 7 8 9 10 11 12 13 14 15 16 17 18 19 20 21 22 23 24 25 26 27 28 29 30 31 32 33 34 35 36 37 38
000
FTUS43 KDMX 272321
TAFDSM
TAF
KDSM 272321Z 2800/2824 29010KT P6SM BKN019
     FM280100 26007KT P6SM FEW250
     FM281900 VRB05KT P6SM FEW017 BKN120=

USA.gov is the U.S. government's official web portal to all federal, state and local government web resources and services.